Location: Unspecified
(0.0000°N, 0.0000°E)
Time: 04:58:45
(UTC+00:00)

Vanguard 2 Rocket - All Passes

Search period start: 18 December 2017 00:00
Search period end: 28 December 2017 00:00
Orbit: 556 x 3326 km, 32.9° (Epoch: 16 December)

Date Brightness Start Highest point End Pass type
(mag) Time Alt. Az. Time Alt. Az. Time Alt. Az.
18 Dec - 01:43:45 10° NW 02:04:23 82° NE 02:18:58 10° ESE visible
18 Dec - 04:05:12 10° WNW 04:21:20 40° SW 04:31:43 10° SSE visible
18 Dec - 13:22:41 10° SSW 13:26:33 38° SE 13:31:46 10° ENE daylight
18 Dec - 15:35:16 10° W 15:40:05 31° NNW 15:47:31 10° NE daylight
18 Dec - 17:53:09 10° NW 17:57:21 13° N 18:02:31 10° NNE daylight
18 Dec - 20:11:46 10° NNW 20:18:50 14° NNE 20:27:07 10° NE visible
18 Dec - 22:26:22 10° NNW 22:41:34 30° NNE 22:57:38 10° E visible
19 Dec - 00:42:00 10° NW 01:02:15 65° NE 01:18:33 10° ESE visible
19 Dec - 03:01:18 10° WNW 03:20:22 58° SW 03:32:56 10° SE visible
19 Dec - 05:28:25 10° WSW 05:36:42 17° SW 05:43:00 10° S visible
19 Dec - 12:24:58 10° S 12:27:35 16° SE 12:30:29 10° ESE daylight
19 Dec - 14:35:58 10° WSW 14:40:21 46° NNW 14:47:06 10° NE daylight
19 Dec - 16:52:17 10° NW 16:56:11 14° NNW 17:01:08 10° NNE daylight
19 Dec - 19:12:23 10° N 19:16:04 11° N 19:20:12 10° NNE visible
19 Dec - 21:26:20 10° NNW 21:38:33 23° NNE 21:52:41 10° ENE visible
19 Dec - 23:40:53 10° NW 23:59:46 51° NNE 00:17:12 10° ESE visible
20 Dec - 01:58:22 10° WNW 02:18:54 77° SW 02:33:33 10° SE visible
20 Dec - 04:22:06 10° W 04:35:53 28° SW 04:45:26 10° SSE visible
20 Dec - 13:37:02 10° SW 13:41:07 87° NW 13:46:50 10° NE daylight
20 Dec - 15:51:47 10° WNW 15:55:36 17° NNW 16:00:41 10° NNE daylight
20 Dec - 20:26:52 10° NNW 20:35:37 17° NNE 20:46:07 10° NE visible
20 Dec - 22:40:22 10° NNW 22:57:07 39° NNE 23:14:44 10° E visible
21 Dec - 00:56:17 10° NW 01:16:56 84° NE 01:33:31 10° ESE visible
21 Dec - 03:17:13 10° WNW 03:34:48 42° SW 03:46:56 10° SSE visible
21 Dec - 05:49:16 10° SW 05:52:06 11° SSW 05:54:40 10° SSW daylight
21 Dec - 12:38:27 10° SW 12:42:10 40° SE 12:46:34 10° ENE daylight
21 Dec - 14:51:45 10° WNW 14:55:32 23° NNW 15:00:45 10° NNE daylight
21 Dec - 19:28:25 10° N 19:32:56 12° NNE 19:38:04 10° NNE visible
21 Dec - 21:40:26 10° NNW 21:54:28 30° NNE 22:10:48 10° E visible
21 Dec - 23:54:59 10° NW 00:14:36 67° NE 00:32:42 10° ESE visible
22 Dec - 02:13:33 10° WNW 02:33:20 58° SW 02:47:48 10° SE visible
22 Dec - 04:40:18 10° WSW 04:50:54 19° SSW 04:58:53 10° S visible
22 Dec - 11:40:18 10° SSW 11:43:08 18° SSE 11:45:59 10° E daylight
22 Dec - 13:52:09 10° W 13:55:57 35° NNW 14:01:04 10° NE daylight
22 Dec - 20:41:04 10° NNW 20:51:54 22° NNE 21:05:13 10° ENE visible
22 Dec - 22:54:21 10° NW 23:12:09 53° NE 23:30:54 10° ESE visible
23 Dec - 01:10:58 10° WNW 01:31:26 75° SW 01:48:03 10° SE visible
23 Dec - 03:34:08 10° W 03:49:32 30° SW 04:00:44 10° SSE visible
23 Dec - 12:52:54 10° WSW 12:56:49 73° NNW 13:01:29 10° NE daylight
23 Dec - 15:09:23 10° NW 15:11:02 11° NNW 15:12:52 10° N daylight
23 Dec - 19:42:34 10° N 19:49:29 15° NNE 19:57:52 10° NE visible
23 Dec - 21:54:22 10° NNW 22:09:45 40° NE 22:27:55 10° E visible
24 Dec - 00:09:19 10° NW 00:29:11 87° NE 00:47:37 10° SE visible
24 Dec - 02:29:30 10° W 02:47:54 42° SW 03:01:49 10° SSE visible
24 Dec - 05:00:01 10° SW 05:06:31 13° SSW 05:11:55 10° S visible
24 Dec - 11:53:56 10° SW 11:57:52 47° SE 12:01:49 10° ENE daylight
24 Dec - 14:08:23 10° WNW 14:11:06 16° NNW 14:14:20 10° NNE daylight
24 Dec - 20:54:58 10° NNW 21:07:32 29° NNE 21:23:27 10° E visible
24 Dec - 23:08:28 10° NW 23:26:49 69° NE 23:46:20 10° ESE visible
25 Dec - 01:26:12 10° WNW 01:45:56 57° SW 02:02:16 10° SE visible
25 Dec - 03:52:14 10° WSW 04:04:46 21° SSW 04:14:24 10° SSE visible
25 Dec - 10:55:10 10° SSW 10:58:45 22° SSE 11:01:54 10° E daylight
25 Dec - 13:08:14 10° W 13:11:38 27° NNW 13:15:32 10° NNE daylight
25 Dec - 19:56:15 10° NNW 20:05:30 20° NNE 20:17:21 10° ENE visible
25 Dec - 22:08:20 10° NW 22:24:34 54° NE 22:44:04 10° ESE visible
26 Dec - 00:24:03 10° WNW 00:43:41 73° SW 01:02:05 10° SE visible
26 Dec - 02:46:24 10° W 03:02:50 31° SSW 03:15:41 10° SSE visible
26 Dec - 09:56:42 10° S 09:59:13 13° SSE 10:01:23 10° SE daylight
26 Dec - 12:08:31 10° WSW 12:12:33 59° NW 12:16:36 10° NE daylight
26 Dec - 18:58:58 10° N 19:03:39 12° NNE 19:09:08 10° NE visible
26 Dec - 21:08:48 10° NNW 21:22:34 40° NE 21:40:36 10° E visible
26 Dec - 23:22:52 10° NW 23:41:20 89° NE 00:01:11 10° SE visible
27 Dec - 01:42:10 10° W 02:00:40 43° SW 02:16:16 10° SSE visible
27 Dec - 04:11:31 10° SW 04:20:37 16° SSW 04:28:04 10° S visible
27 Dec - 11:09:02 10° SW 11:13:37 58° SSE 11:17:27 10° ENE daylight
27 Dec - 13:25:19 10° NW 13:26:38 11° NNW 13:28:02 10° N daylight
27 Dec - 20:09:54 10° NNW 20:20:52 28° NE 20:35:43 10° E visible
27 Dec - 22:22:28 10° NW 22:39:06 71° NE 22:59:27 10° ESE visible
